Wind_Speed
16 16 16 17 17 17 18 18 18 18 17 17 16 15 15 14 14 14 13 13 12 12 12 11 11 11 11 11 12 11 10 9 9 8 9 9 8 7 6 6 5 4 5 6 6 7 7 7 7 7 7 7 7 7 8 8 8 9 10 10 11 11 12 12 12 12 12 13 15 14 14 16 17 17 17 16 18 18 18 19 19 19 19 18 19
17 16 16 17 17 17 18 18 18 18 18 17 17 16 16 15 15 15 14 13 12 12 12 12 12 12 12 12 12 12 10 10 9 9 8 8 8 7 7 6 5 5 6 6 6 7 7 8 8 8 8 8 8 8 7 8 9 9 10 11 12 12 13 13 13 13 13 13 14 15 16 17 17 18 19 18 19 19 19 19 20 21 21 21 21
17 17 17 17 17 18 18 18 19 19 19 18 18 17 17 17 16 16 15 14 14 13 13 13 13 12 13 13 13 13 12 11 11 10 9 9 8 8 8 7 6 6 7 7 7 7 8 8 8 8 9 9 8 8 8 9 9 10 11 12 12 13 13 14 15 15 15 14 14 15 16 17 18 20 20 20 20 20 20 21 21 22 22 23 23
19 19 19 18 18 18 19 19 19 19 19 19 19 18 18 18 18 17 16 15 15 14 14 14 14 13 14 14 14 14 13 13 12 12 11 10 10 9 9 9 8 8 8 8 8 9 9 9 9 9 9 10 10 10 11 11 11 12 12 13 14 14 15 15 16 16 17 17 16 16 17 18 19 20 20 21 21 22 22 23 23 22 22 23 23
21 20 20 20 20 19 20 20 20 20 20 20 20 19 19 19 20 19 18 17 17 17 16 15 14 14 14 15 15 15 15 14 14 14 13 12 12 11 11 10 10 10 10 10 10 10 10 11 11 11 11 12 11 12 12 12 12 13 13 14 15 15 16 16 17 18 19 19 18 17 17 17 18 18 19 20 21 22 22 23 23 23 22 21 21
23 23 22 22 22 21 21 21 21 21 21 21 21 21 21 21 21 20 19 20 19 18 18 16 15 15 15 15 16 16 16 16 16 15 14 14 14 13 12 12 11 11 11 12 11 11 12 12 12 13 13 13 13 12 12 13 13 13 14 14 15 15 16 17 18 18 18 19 19 18 18 18 19 19 19 20 20 20 20 20 20 21 21 22 21
26 25 24 24 23 23 22 22 21 21 22 22 23 22 23 23 23 21 20 21 21 20 19 18 17 16 16 16 16 17 17 17 17 17 16 16 15 14 14 13 13 13 13 13 13 13 13 13 13 13 13 14 14 13 13 13 13 13 14 14 15 15 16 16 18 18 18 19 20 20 20 20 20 20 19 18 19 19 19 19 19 20 21 22 21
30 29 27 26 26 25 24 24 23 23 23 23 24 24 24 25 25 24 22 22 23 22 21 21 19 18 18 17 17 17 17 17 17 17 17 17 17 16 16 15 15 15 15 14 14 14 13 13 13 13 14 15 14 14 14 14 14 14 15 15 15 16 17 18 19 20 20 20 20 21 21 19 19 18 17 17 19 19 19 20 22 22 22 22 22
34 33 31 30 29 28 27 27 26 25 25 24 24 25 26 26 27 27 26 25 25 23 23 23 22 20 20 19 18 17 17 16 17 17 18 18 18 18 18 18 17 17 16 15 15 14 14 13 13 14 15 16 15 14 15 16 17 17 17 18 18 19 19 19 20 21 21 21 20 19 18 17 17 17 17 18 20 20 21 22 24 25 25 25 24
37 37 36 34 32 32 31 31 30 28 26 26 25 25 26 26 27 28 28 28 27 26 25 25 24 23 22 21 19 18 18 17 17 18 18 18 18 18 19 19 17 16 16 16 16 15 15 14 15 15 16 17 17 17 17 18 19 19 19 19 19 20 20 21 21 21 21 20 18 17 17 16 16 17 18 19 20 21 23 25 26 26 26 27 25
40 40 39 38 36 36 35 34 34 31 28 27 27 27 27 27 27 28 28 29 29 28 26 26 25 24 24 23 21 20 20 20 20 20 19 19 20 20 20 20 18 17 18 18 17 17 17 16 16 17 17 18 19 19 18 18 18 19 19 19 20 20 20 20 20 20 20 19 17 17 18 18 18 19 21 21 21 22 24 25 27 27 27 28 26
39 40 41 41 41 40 39 37 36 35 31 29 28 29 29 29 28 27 27 28 29 29 28 27 26 25 25 25 23 22 21 22 23 23 21 21 21 21 21 21 21 20 20 20 19 19 19 18 18 17 17 17 19 19 18 18 19 19 19 20 21 20 20 20 19 19 19 20 19 19 20 20 20 21 21 22 23 24 25 26 27 28 28 29 29
35 38 41 43 43 43 42 40 38 37 35 32 30 31 31 31 30 29 28 28 29 29 29 29 28 27 26 26 25 24 23 23 25 25 23 22 22 23 23 22 22 22 22 21 21 20 21 21 20 19 19 19 20 21 21 20 21 21 21 22 22 21 20 19 20 19 19 20 21 21 22 23 23 21 22 24 25 26 27 27 28 28 28 28 29
31 33 37 39 40 40 40 40 40 39 38 36 34 34 34 33 32 32 31 30 29 29 29 29 30 29 28 28 27 26 27 27 27 27 25 23 23 24 24 24 24 24 24 23 23 23 23 23 23 22 22 22 23 23 23 22 23 22 22 21 22 22 22 20 20 21 21 21 22 23 23 25 25 24 25 27 28 28 29 28 27 27 27 27 27
27 28 30 31 31 33 35 37 38 39 39 38 37 37 37 36 36 34 33 32 31 30 29 29 29 29 29 28 28 29 32 31 30 30 29 26 24 25 26 26 26 26 25 25 25 26 26 26 25 25 25 26 25 24 24 24 24 25 24 22 23 24 24 22 21 22 22 23 23 24 24 24 26 27 28 28 29 30 30 28 27 28 29 27 25
26 27 26 25 25 28 29 30 32 35 37 38 38 38 37 37 38 38 36 35 34 34 32 30 29 30 30 29 30 31 32 31 31 31 30 27 26 26 26 26 26 26 26 26 27 28 28 28 28 27 27 26 25 25 25 24 25 25 26 25 25 25 24 23 23 23 24 24 25 26 26 26 27 29 30 30 30 30 30 29 28 29 30 27 25
26 26 26 25 25 26 26 26 28 31 34 35 35 36 36 37 39 40 40 38 38 38 36 33 31 30 29 28 30 30 29 30 29 28 27 26 26 26 26 26 26 26 26 27 29 30 29 29 29 29 28 26 26 26 25 25 25 26 26 26 26 25 24 23 23 24 25 26 27 29 30 29 28 29 30 30 30 31 30 29 29 29 30 29 26
26 26 26 25 25 26 26 26 27 28 28 29 30 32 33 34 37 41 43 43 42 41 37 33 30 30 29 30 31 30 29 29 29 27 26 26 26 27 27 27 28 28 27 26 27 28 28 28 28 28 28 27 28 28 26 26 26 27 27 27 26 25 25 25 24 26 27 28 29 30 30 30 29 28 28 27 28 29 31 31 30 30 30 29 28
26 25 25 23 23 24 25 25 25 24 23 22 24 26 27 27 29 32 35 37 38 39 37 34 33 32 32 34 35 33 31 30 30 28 28 28 28 29 30 29 28 29 28 26 26 26 28 28 27 28 28 27 27 28 28 27 27 28 28 28 28 28 28 27 27 28 29 30 30 30 30 30 29 29 28 27 26 27 30 32 32 31 30 28 27
24 23 22 21 21 21 22 22 21 20 18 17 19 19 19 20 23 24 24 24 26 28 30 31 34 37 38 38 39 39 36 33 30 27 26 28 30 30 30 29 29 28 28 27 27 27 29 29 28 29 29 27 27 27 28 28 29 29 30 30 31 31 31 30 29 29 29 30 31 32 32 31 30 29 29 29 28 28 30 32 31 31 30 28 27
21 20 19 19 19 19 19 18 18 17 16 15 15 15 13 15 16 17 17 17 18 20 23 25 27 30 33 35 37 39 39 37 35 32 28 26 27 27 27 27 27 28 29 29 28 28 28 29 28 29 29 29 29 28 28 27 27 28 29 30 31 31 31 31 31 30 30 30 32 33 33 32 31 31 30 30 30 29 29 30 29 29 29 28 28
18 18 18 17 17 18 18 18 17 17 16 15 15 16 15 15 16 15 14 14 14 17 21 23 23 23 25 28 30 33 35 37 38 36 30 25 25 27 27 27 28 30 30 29 27 27 28 28 27 27 27 28 29 29 28 26 26 28 29 30 30 30 31 31 32 31 31 32 32 32 32 32 31 31 30 28 28 27 26 26 26 26 27 27 27
16 17 16 16 17 17 18 18 18 18 18 18 17 18 18 19 19 19 18 17 16 16 18 19 20 21 23 25 24 24 27 31 35 35 32 28 27 29 30 31 34 36 35 31 26 25 27 27 27 28 28 29 30 29 27 27 28 29 29 29 30 30 30 31 31 31 31 31 30 30 29 29 29 29 27 25 24 24 24 24 24 25 25 24 25
14 14 15 15 16 16 17 17 15 15 15 16 17 17 18 19 19 19 19 19 18 17 17 16 17 19 21 21 19 16 16 20 25 28 30 30 31 33 36 37 37 38 39 35 28 25 24 26 27 27 27 27 27 26 25 26 26 28 29 29 30 30 30 30 30 30 29 30 29 28 27 26 26 26 24 23 22 22 22 23 23 23 24 24 24
11 11 11 11 12 12 12 11 10 8 8 10 11 13 13 13 14 15 16 17 17 17 17 17 17 18 17 18 18 16 15 15 16 18 21 24 27 30 33 34 34 34 34 32 27 24 23 23 24 25 26 25 23 22 23 23 23 24 24 24 24 25 26 26 25 25 26 27 26 25 24 24 24 24 23 22 22 23 23 23 23 23 24 24 24
10 9 9 8 8 8 7 7 7 7 7 7 8 9 8 8 9 9 10 11 13 14 15 16 17 17 17 16 17 17 17 17 16 18 20 22 24 25 26 28 30 29 28 26 24 23 22 22 21 21 22 21 20 20 21 21 21 19 18 17 18 19 20 20 19 19 21 22 22 22 22 23 24 24 24 24 24 25 25 26 25 25 26 26 25
8 8 8 9 9 9 9 10 10 10 10 10 10 9 9 8 8 8 8 8 8 9 11 13 15 17 18 18 17 17 19 20 19 20 21 23 25 27 26 26 26 24 22 21 20 19 19 19 17 16 16 16 16 17 17 17 17 16 16 17 18 19 20 20 19 20 21 22 23 24 25 26 26 27 27 27 27 28 28 28 28 28 28 29 29
6 7 8 9 9 10 11 12 12 13 13 13 12 12 12 11 10 10 10 9 9 9 9 9 10 12 14 14 14 16 18 16 14 15 16 16 18 21 22 21 19 17 17 16 14 13 14 14 13 13 15 16 16 17 16 17 17 17 18 20 20 22 24 24 24 24 25 26 27 28 29 30 30 30 31 31 31 32 32 32 32 32 32 32 32
7 7 8 9 9 10 11 12 12 13 14 14 15 15 15 15 14 14 13 13 12 12 12 11 11 11 12 12 12 14 14 11 10 13 13 12 13 15 16 15 15 15 15 15 15 14 15 16 16 17 18 19 19 20 20 20 21 21 22 23 23 25 27 28 28 28 29 29 31 32 33 33 34 34 35 35 35 35 36 36 36 36 35 35 35
9 10 11 11 11 12 12 12 13 14 14 15 15 16 17 17 17 17 17 17 16 16 16 15 15 15 15 14 14 15 15 14 14 15 15 15 16 16 17 17 18 18 18 19 19 19 20 21 21 22 22 22 23 23 24 25 25 26 26 27 27 28 30 31 31 31 31 32 34 35 35 36 36 36 37 37 37 37 38 38 38 38 37 38 38
12 12 12 13 14 14 15 15 15 15 15 15 16 17 17 18 19 19 20 20 20 20 20 19 19 19 20 19 18 19 19 19 18 18 18 19 20 20 20 21 21 22 23 23 23 24 24 25 25 26 26 26 26 27 28 28 29 29 30 30 31 31 33 33 33 32 32 34 35 35 36 36 36 37 37 37 37 37 38 38 38 38 38 38 38
15 14 14 14 14 15 15 16 16 17 17 17 17 18 18 19 19 20 21 21 22 22 22 22 22 22 23 23 22 22 23 23 23 23 23 23 23 24 24 24 24 25 26 26 27 27 27 28 28 28 29 29 30 31 31 31 31 32 32 32 32 33 34 34 33 32 32 34 34 34 35 35 35 35 35 35 35 35 35 35 35 35 35 35 36
15 15 15 14 15 15 15 16 16 17 17 17 18 18 19 19 20 20 21 21 22 22 23 23 24 24 24 25 25 24 25 25 26 26 26 27 27 27 27 27 28 28 29 29 29 29 29 29 30 30 31 32 32 33 33 33 32 32 32 32 32 33 33 33 31 31 32 32 31 32 32 32 32 31 31 32 32 32 32 32 32 33 33 33 33
15 15 14 14 14 14 15 15 15 16 16 17 17 18 19 19 20 20 21 21 22 22 23 23 24 24 24 25 25 25 25 26 26 27 28 28 28 28 29 29 29 30 30 31 31 30 30 30 30 31 32 32 32 33 33 32 32 31 31 31 31 31 31 30 29 30 30 29 29 30 30 30 30 30 30 30 31 31 31 31 32 32 32 32 32
16 16 15 15 15 15 15 15 15 15 16 16 17 17 18 18 19 20 20 21 21 22 22 23 23 23 24 25 25 25 25 26 26 27 27 28 28 28 28 28 28 28 29 29 30 30 30 30 31 32 32 31 32 32 32 31 31 31 30 30 30 30 30 29 29 30 30 29 30 31 31 30 31 31 31 31 31 32 32 32 32 33 33 33 34
19 18 18 17 17 17 16 16 17 17 17 17 17 17 17 18 19 19 19 20 21 21 22 22 23 23 23 24 24 24 24 24 25 26 26 27 27 27 26 26 27 27 27 27 28 28 28 29 30 30 30 30 31 31 31 30 30 30 30 30 30 30 30 30 30 31 31 31 31 31 32 32 32 32 33 33 33 33 34 34 34 34 35 35 35
21 21 21 21 21 20 20 19 19 19 19 19 19 19 19 19 19 19 20 21 21 21 21 22 23 23 23 24 23 23 23 24 25 25 26 26 26 25 25 26 26 26 26 26 27 27 28 29 29 29 29 30 30 30 30 30 30 30 30 30 31 31 31 31 32 32 33 33 33 33 33 33 33 33 34 34 34 34 34 35 35 35 36 36 37
22 22 22 23 23 23 23 22 22 22 21 21 21 21 21 21 21 21 22 22 22 22 23 23 24 25 25 25 23 22 22 24 26 26 26 26 26 25 25 26 26 27 27 27 27 28 28 29 30 30 30 30 30 31 31 31 31 31 31 32 32 33 33 34 34 34 35 35 35 35 35 35 35 35 36 36 36 36 36 36 36 37 37 37 38
24 24 24 24 24 24 24 24 24 24 24 24 24 24 23 24 24 24 24 24 24 24 24 25 25 27 27 27 24 23 24 26 28 27 27 28 27 27 27 27 27 27 28 28 29 30 30 31 32 32 32 32 32 33 33 33 33 33 33 34 34 35 35 36 37 37 37 37 37 37 38 38 37 38 38 38 38 39 39 39 39 39 40 40 40
26 26 26 26 25 25 25 25 26 26 26 26 26 26 26 26 25 25 26 26 26 26 26 26 28 29 29 27 25 25 27 28 29 29 29 30 30 29 29 29 29 30 30 31 31 32 33 33 33 33 33 34 34 35 35 36 36 36 37 37 37 37 38 38 39 39 40 40 41 41 41 41 41 41 41 41 41 41 42 42 42 42 42 43 43
30 29 28 28 27 26 26 26 26 26 27 28 28 29 29 28 28 27 28 28 28 28 28 28 30 31 30 28 27 27 27 29 30 31 31 31 31 31 31 31 31 32 32 33 34 35 35 34 33 34 35 36 36 37 37 38 38 39 39 39 40 40 41 41 41 42 42 43 43 44 44 45 45 44 44 45 45 45 46 46 46 45 45 45 46
34 34 32 31 30 29 28 28 28 27 27 28 29 30 30 30 30 30 30 30 30 30 29 30 32 33 32 30 28 28 28 29 31 31 32 32 32 32 32 32 33 33 34 36 36 37 36 35 34 35 36 36 37 38 38 38 39 40 40 40 41 41 42 42 43 43 44 45 45 46 46 47 47 47 47 48 48 48 48 48 49 48 48 48 48
38 38 36 34 33 33 32 32 31 30 30 29 29 29 30 30 31 32 32 32 32 31 31 31 32 34 34 33 31 29 29 30 32 32 32 32 33 33 33 34 35 36 36 37 38 37 36 35 35 35 35 36 37 38 38 38 39 40 41 41 42 42 42 43 43 44 45 46 46 46 47 47 47 47 48 48 48 48 48 48 48 48 48 48 48
39 40 39 37 37 36 36 35 35 34 32 31 30 30 30 30 31 32 33 33 33 33 33 33 33 34 35 35 33 31 30 31 32 33 33 33 33 33 34 35 36 37 37 38 38 38 38 37 36 36 36 36 37 38 38 38 39 40 41 42 42 42 43 43 44 45 45 46 46 46 46 47 47 47 47 48 48 48 47 47 48 48 48 48 48
39 40 40 40 39 39 38 37 36 35 34 33 32 31 31 31 31 32 33 33 33 34 34 34 34 35 35 36 35 34 32 32 32 33 34 34 34 34 35 35 36 37 37 38 39 38 38 38 37 37 37 38 39 39 40 40 40 40 41 42 43 43 44 44 45 45 45 45 46 46 46 46 46 46 47 48 48 47 46 46 46 47 47 47 47
37 39 40 40 40 39 39 38 37 36 35 34 33 32 32 32 32 32 32 33 33 34 34 35 35 35 36 36 36 35 34 33 33 34 35 35 35 35 35 35 36 36 37 38 38 38 38 38 39 39 39 40 40 40 41 42 42 42 43 43 44 45 45 46 46 45 45 45 45 45 45 45 46 46 46 47 47 46 45 45 45 46 46 47 48
35 37 38 38 39 39 39 39 38 37 36 35 35 34 34 33 33 32 33 33 33 34 34 35 35 35 36 36 36 36 36 35 34 35 36 36 36 36 36 36 36 36 37 37 37 37 38 39 40 40 40 40 41 41 42 42 42 43 43 44 44 45 45 46 45 45 44 44 44 45 45 46 46 46 46 46 46 46 45 45 46 46 47 48 49
35 36 37 38 39 39 39 40 39 37 36 36 36 35 34 34 33 33 33 34 34 34 34 34 35 36 36 36 36 36 36 35 35 35 36 36 37 37 37 37 37 37 36 36 37 37 38 39 39 40 39 40 40 41 41 41 42 42 43 44 44 44 44 44 44 44 44 44 44 45 45 46 46 47 47 47 48 47 47 48 49 49 49 49 50
36 37 37 38 38 38 39 39 37 35 35 35 34 34 33 33 33 33 33 34 34 34 33 33 34 35 35 36 36 36 36 36 35 36 36 36 37 37 37 37 37 37 36 36 37 37 38 38 39 39 39 40 40 41 41 41 42 43 44 44 43 43 43 44 44 44 45 45 45 45 46 46 47 47 48 48 49 50 50 50 51 51 51 51 50
36 36 36 36 36 36 36 36 34 33 33 33 33 33 33 33 33 33 33 34 34 34 33 33 33 34 34 35 35 35 36 36 36 36 36 36 36 36 36 37 37 37 37 37 37 38 38 38 39 39 40 40 40 41 41 41 42 43 43 43 42 42 42 43 44 44 45 46 47 48 48 49 49 49 49 49 50 50 50 50 50 50 50 50 49
33 33 33 33 33 32 33 33 32 32 32 32 31 32 32 32 32 33 33 33 33 33 33 33 33 33 33 34 34 35 35 36 36 36 36 35 36 36 36 36 36 37 37 37 37 38 38 38 38 39 39 39 40 40 40 40 41 41 41 41 41 42 42 43 44 46 47 48 49 50 50 51 51 51 51 50 49 48 48 48 48 47 47 47 47
Wind_Direction
215 217 216 218 219 218 220 220 219 217 216 216 217 217 219 220 221 223 225 225 224 225 227 228 230 234 235 234 235 237 239 241 247 250 251 257 262 267 272 269 261 256 257 262 269 274 275 276 280 283 287 289 290 291 294 299 301 301 302 303 302 303 304 304 304 304 303 303 303 303 301 300 302 304 305 306 307 308 311 312 313 314 316 318 320
218 221 221 222 222 222 224 225 224 223 220 220 220 221 223 224 225 228 229 230 229 228 228 228 231 234 234 236 238 239 239 239 245 251 254 257 260 265 269 266 263 264 268 272 277 280 280 282 285 286 288 287 286 287 289 293 297 298 301 304 306 306 307 306 304 304 304 304 304 304 302 302 303 304 305 306 306 307 310 312 314 317 319 321 322
217 222 223 224 223 223 225 227 227 227 225 224 224 224 227 228 229 231 232 232 231 231 232 231 232 235 236 238 240 242 240 238 243 246 249 252 252 255 262 263 263 266 270 273 274 277 280 283 286 287 288 288 288 289 289 290 292 293 296 299 301 302 303 304 304 305 305 304 304 304 302 303 304 304 306 307 308 310 312 313 314 316 317 318 320
216 219 222 225 224 224 226 227 228 229 228 228 228 228 230 232 233 231 231 235 235 233 233 235 236 236 238 240 241 242 243 241 244 246 245 248 250 253 258 262 264 265 267 270 271 275 278 281 283 284 284 286 288 291 292 292 294 295 296 297 298 299 299 300 302 302 303 303 302 300 299 300 301 302 305 307 308 309 311 313 313 314 315 316 316
218 218 220 224 225 226 227 228 229 229 229 230 230 230 232 235 237 233 229 231 236 238 236 236 240 240 240 243 243 243 245 244 245 246 247 248 250 252 255 258 261 264 265 268 269 271 274 276 280 282 282 284 286 288 290 292 295 296 296 297 297 298 298 299 299 299 300 301 302 302 301 301 301 302 305 306 305 307 310 311 312 314 316 316 316
224 221 221 223 225 228 230 231 231 231 231 231 231 230 232 236 240 239 235 232 232 238 240 237 239 242 242 245 247 246 247 247 246 247 247 249 249 251 255 257 259 261 263 266 268 270 274 275 278 279 281 283 284 285 288 291 293 294 294 294 293 293 294 296 295 296 300 302 304 305 307 307 309 312 314 313 312 315 315 314 315 319 319 318 317
230 227 224 225 227 228 230 233 235 234 234 233 232 231 231 234 237 236 238 238 233 234 240 240 239 242 245 247 249 250 251 250 249 248 248 250 252 253 254 256 257 258 260 263 266 269 272 275 278 280 281 281 281 283 287 289 292 292 292 290 290 291 293 295 296 299 303 304 306 308 311 314 317 319 320 318 318 322 321 318 319 322 322 319 318
230 231 229 228 229 230 230 232 234 235 236 235 235 235 234 235 237 234 232 238 237 234 237 241 242 243 246 249 250 253 254 254 254 253 250 250 251 253 254 255 257 258 258 259 262 267 270 272 276 279 281 281 280 283 286 287 288 289 289 288 289 291 293 294 297 300 303 304 306 309 313 316 319 322 322 321 321 323 322 320 321 323 324 321 320
230 231 232 232 231 231 232 232 233 234 236 237 237 238 238 238 241 242 239 240 242 238 236 239 243 244 246 248 251 254 256 257 256 254 252 251 251 252 253 253 252 255 257 259 260 264 267 269 271 272 275 278 279 281 282 284 286 287 289 292 293 294 295 297 300 302 304 306 308 312 315 319 322 323 324 323 320 319 319 319 320 323 323 320 320
232 232 233 234 234 233 234 235 235 234 235 239 240 239 240 241 242 245 246 247 248 247 242 241 243 246 248 250 252 255 258 258 256 254 254 255 255 254 255 256 254 255 259 260 260 262 265 267 269 269 272 276 279 280 280 282 285 288 291 292 292 294 295 298 301 303 305 307 310 312 314 316 317 316 315 314 311 312 315 316 316 317 317 315 315
235 235 235 236 236 236 236 238 240 238 234 237 240 241 241 242 243 245 247 249 250 251 248 246 246 247 250 253 254 255 257 258 257 256 255 255 256 257 259 262 263 262 263 262 263 264 266 268 269 271 274 276 277 278 279 281 283 285 286 286 287 290 293 295 297 299 301 302 301 302 304 306 307 306 305 306 306 308 312 313 313 314 315 312 313
239 240 239 238 238 238 238 239 242 244 241 238 240 243 243 244 244 244 246 249 250 251 250 249 248 247 250 253 254 254 256 256 256 258 257 255 256 258 260 263 265 265 264 265 266 267 268 269 270 271 274 275 277 279 280 282 284 285 286 286 287 288 290 292 293 294 295 294 294 297 299 300 302 303 303 305 308 310 312 315 315 316 315 315 314
241 242 241 240 239 239 240 240 242 245 246 245 244 245 246 246 245 244 245 247 249 251 250 249 248 247 248 250 252 254 255 255 255 256 256 256 257 258 259 261 263 264 265 266 268 268 269 269 270 271 272 273 277 278 279 280 282 282 283 285 286 286 286 288 291 291 291 292 296 300 303 305 307 307 306 308 311 313 314 315 316 315 315 315 314
239 241 242 241 241 241 241 242 243 245 246 247 247 245 246 246 245 244 244 245 246 247 249 249 249 248 246 247 250 252 253 254 255 257 258 257 257 257 258 259 260 262 264 265 267 268 269 270 270 272 272 271 271 273 276 279 280 279 279 281 283 284 285 286 288 289 290 292 296 299 305 309 309 307 308 310 312 313 312 314 316 317 317 315 314
238 240 242 244 244 244 244 245 246 247 247 247 246 245 245 245 245 243 243 244 245 244 245 246 248 247 245 244 244 246 247 250 253 257 259 258 256 256 257 257 258 260 262 264 265 266 268 269 268 269 269 270 271 273 276 279 281 281 282 281 281 282 286 287 288 288 290 293 297 299 303 306 307 307 310 312 312 312 311 313 316 318 318 317 317
241 241 242 243 244 245 246 246 247 249 249 247 246 246 246 245 245 245 244 245 244 243 240 239 240 243 243 241 240 242 246 250 252 254 257 259 259 258 258 257 257 259 261 263 264 263 263 264 266 267 268 270 271 272 273 275 278 279 279 278 277 279 282 285 286 288 291 295 298 300 302 304 305 307 309 310 310 309 308 310 314 316 317 318 319
242 242 242 241 241 241 242 243 243 245 247 247 246 245 245 244 244 243 243 243 242 241 240 237 237 242 246 245 244 245 248 252 254 255 257 259 259 259 259 258 257 255 254 255 257 259 261 264 267 269 270 270 270 271 273 275 276 276 275 274 275 277 280 282 285 289 293 296 297 299 301 303 304 304 304 306 307 305 305 308 312 313 313 315 316
240 241 241 240 239 240 240 240 240 242 245 247 247 246 245 244 243 242 242 242 242 242 243 244 243 245 248 250 251 251 249 251 255 259 258 258 258 258 258 257 256 254 253 252 254 258 261 263 265 269 271 270 269 269 272 274 274 274 273 274 276 278 281 284 287 289 291 292 294 296 299 302 302 301 301 301 301 301 301 305 309 311 310 309 309
236 236 235 234 235 236 237 237 239 241 244 243 242 243 244 245 245 246 247 248 249 247 246 247 246 246 247 251 254 254 252 250 253 256 256 255 255 256 257 258 259 261 262 261 260 261 263 263 265 269 272 273 272 271 270 271 271 272 273 276 278 281 283 286 288 288 289 291 294 296 298 300 300 300 300 299 298 297 298 301 305 308 307 304 305
231 229 226 224 226 229 231 232 234 236 236 233 232 234 238 241 243 248 252 255 257 256 253 250 248 246 247 250 253 254 252 249 249 252 255 255 254 255 258 260 261 264 266 265 262 261 263 267 270 272 274 278 280 279 276 273 271 271 274 276 278 281 283 284 285 286 289 292 295 297 298 298 299 299 299 299 299 298 298 300 303 304 303 301 302
226 226 224 219 218 222 224 225 227 228 227 225 224 222 224 231 236 242 249 253 257 259 256 250 247 248 250 252 254 255 254 250 248 250 253 254 252 252 256 261 263 265 265 264 263 264 265 266 270 273 276 279 282 282 280 279 277 276 276 277 278 280 281 281 282 284 287 290 293 295 296 296 297 298 298 299 299 300 300 302 302 302 302 302 302
222 226 226 222 220 221 222 223 224 227 229 228 226 225 226 232 236 238 243 249 255 256 251 245 246 251 252 251 252 255 255 251 247 249 250 247 245 248 255 262 267 268 266 262 261 263 265 264 266 269 273 278 281 281 281 281 281 281 280 279 278 279 280 280 280 281 284 287 289 290 292 294 295 296 297 297 298 300 301 302 303 305 306 306 304
212 217 220 221 219 221 224 225 222 224 229 232 234 236 237 240 242 242 242 243 251 256 251 245 246 249 250 250 253 259 259 251 243 241 242 242 244 250 257 262 265 267 269 268 263 262 265 268 271 272 274 277 279 278 278 279 278 277 277 277 277 277 279 280 280 281 283 285 286 288 290 291 292 293 294 295 297 299 301 303 305 306 307 306 305
205 208 211 213 213 217 224 226 220 218 224 230 235 240 241 241 243 245 244 243 246 249 246 244 245 246 248 254 258 262 264 256 245 239 240 244 250 256 262 265 265 264 265 265 263 260 261 265 269 271 275 277 276 274 275 276 274 272 273 274 275 276 277 279 280 281 282 283 285 287 288 289 289 290 291 293 295 298 300 302 304 305 306 307 307
207 208 208 208 212 218 222 224 221 217 218 223 231 237 237 237 239 241 241 241 241 241 240 241 245 248 251 255 256 256 260 261 256 250 248 249 251 252 255 258 258 256 256 259 260 261 260 261 266 271 274 274 270 266 266 268 269 271 273 275 276 277 278 279 280 281 281 282 284 286 287 287 288 289 290 293 295 297 299 301 303 305 306 307 309
205 210 209 208 212 216 214 212 209 209 211 215 224 232 234 235 236 235 237 239 240 241 241 238 241 245 248 250 252 255 257 258 258 257 255 253 253 251 249 250 251 251 251 252 255 259 261 262 267 271 273 271 267 263 262 263 267 272 276 279 282 283 283 284 284 282 281 283 285 287 287 287 288 289 291 293 295 296 298 299 301 303 303 304 306
210 217 219 221 222 221 220 218 214 214 218 220 223 229 235 241 244 244 243 243 245 248 247 241 239 242 246 249 253 257 259 260 261 261 259 257 257 255 251 250 252 254 252 251 254 258 261 262 264 267 271 272 272 270 270 271 274 276 278 280 283 285 286 287 287 285 285 286 287 287 287 287 288 289 290 292 292 293 294 295 296 297 298 299 300
223 226 228 232 234 233 233 232 230 229 230 231 232 234 236 239 244 247 248 247 247 249 251 251 249 247 249 252 254 257 262 265 263 261 260 256 253 251 247 246 251 257 260 262 264 263 262 262 262 263 266 269 271 274 276 278 278 277 277 279 282 283 283 285 285 285 286 287 286 285 285 285 286 287 287 288 288 288 289 289 290 291 291 292 294
249 249 247 245 245 246 245 244 244 243 241 241 242 243 243 244 245 248 250 250 250 250 250 251 253 251 250 250 249 255 263 265 256 256 259 255 249 250 251 250 252 257 261 263 263 262 262 263 263 264 266 268 272 275 276 277 278 279 279 281 282 281 281 284 285 285 286 285 283 283 283 284 284 284 284 285 286 286 287 287 288 289 289 290 291
257 255 254 252 251 251 251 251 251 250 249 248 247 247 248 249 249 250 252 252 253 254 253 252 252 253 254 254 253 256 259 257 252 253 255 253 251 251 252 254 255 257 260 262 263 264 265 266 268 269 271 272 274 275 275 277 279 281 282 283 282 280 280 282 283 284 284 282 280 281 281 281 281 282 282 283 284 284 285 286 287 288 289 289 290
263 259 256 254 252 252 252 252 253 254 254 254 253 252 252 253 253 253 254 255 255 256 256 255 254 255 256 256 256 257 260 260 258 256 256 256 257 256 256 257 259 261 263 264 265 267 269 270 272 273 274 276 276 275 276 278 280 281 282 282 282 281 280 281 283 284 282 279 279 280 281 280 281 281 282 283 283 283 284 285 286 287 288 288 289
261 261 259 257 255 254 253 253 253 254 255 256 256 256 255 255 255 255 256 257 257 257 258 258 257 257 258 257 255 256 258 261 261 261 260 260 261 261 262 262 263 264 266 267 268 270 271 273 274 274 275 275 275 275 277 279 279 280 281 281 281 280 281 283 285 285 282 281 282 282 282 282 282 283 284 284 284 285 286 286 287 287 288 289 289
259 259 259 259 258 257 257 256 255 255 255 256 257 257 257 256 256 255 255 256 256 257 258 259 259 259 260 260 259 257 257 258 260 261 261 261 261 262 263 264 265 266 268 269 270 271 272 273 273 273 273 274 275 276 278 279 280 280 281 280 280 280 281 284 286 284 283 283 284 284 283 284 285 286 286 286 287 288 288 288 289 289 289 289 290
261 259 258 259 260 261 261 261 260 259 259 258 258 258 259 259 259 258 257 256 257 257 258 259 260 261 262 263 263 263 262 262 262 262 262 263 264 264 264 265 266 267 268 270 271 273 273 274 274 273 274 276 277 278 279 280 281 281 281 280 280 281 282 284 283 282 282 283 283 282 283 284 285 286 287 287 287 288 288 289 289 289 289 289 289
262 261 260 260 262 264 265 266 266 266 266 265 264 263 263 263 263 262 261 261 260 260 259 259 260 262 263 264 265 266 267 267 268 267 267 267 268 269 269 269 269 270 270 271 272 273 274 275 275 276 277 278 279 279 280 281 281 281 280 280 280 281 281 281 280 280 281 282 281 282 284 285 285 286 287 287 287 287 287 288 288 288 289 289 289
265 264 264 263 264 265 267 269 271 271 271 271 271 270 269 268 268 268 267 267 266 265 264 262 261 260 262 264 265 267 269 269 270 270 271 271 271 272 273 273 273 273 273 273 274 274 274 274 274 275 276 277 278 279 280 281 281 280 280 280 280 280 280 280 281 281 282 282 282 283 284 284 285 286 286 287 287 287 288 288 288 289 289 289 289
267 267 267 267 268 268 269 269 270 272 273 273 272 272 272 272 272 272 272 271 271 271 270 269 267 265 263 262 263 265 268 270 269 269 270 271 272 273 274 274 275 275 276 275 275 274 274 275 275 276 276 276 277 277 278 278 279 280 280 280 280 281 281 281 281 281 282 282 283 283 284 284 285 285 285 286 286 287 287 288 288 288 289 289 289
269 269 270 270 270 271 272 273 273 273 273 274 273 272 272 272 272 272 272 272 273 273 272 273 273 273 271 269 267 267 267 267 267 268 268 269 270 271 272 273 274 275 277 277 277 277 277 278 278 278 278 279 279 280 280 279 279 280 280 281 281 282 282 282 282 282 282 282 283 283 284 284 284 285 285 286 286 287 287 287 287 287 287 287 287
271 272 272 272 273 274 274 275 276 275 275 275 274 273 273 272 272 271 271 271 272 272 272 273 273 272 272 273 274 272 268 267 267 267 268 268 268 269 270 271 272 273 274 275 275 276 276 276 277 279 280 281 282 282 282 282 282 282 282 281 282 282 283 283 283 284 285 285 285 285 285 286 286 286 286 286 287 287 287 287 288 288 288 288 288
273 274 275 275 275 275 276 276 277 277 277 277 276 275 274 273 273 273 272 271 271 271 272 272 272 271 271 273 274 272 270 269 269 269 268 267 267 267 267 268 268 269 270 271 271 271 272 273 276 279 280 280 280 280 280 281 281 282 282 281 281 281 281 282 283 284 285 285 286 286 287 287 287 287 287 287 288 288 288 288 288 288 288 288 288
274 275 275 276 276 276 275 275 275 275 276 277 277 277 276 275 274 274 273 272 273 273 273 273 272 271 272 274 274 273 272 272 271 271 271 270 270 270 269 268 268 268 268 268 268 269 270 272 274 275 275 276 277 277 278 279 279 280 280 280 281 281 281 282 283 283 284 284 285 285 286 286 286 286 287 287 287 288 288 288 289 289 289 289 289
274 274 274 275 277 278 278 276 275 275 275 275 275 276 276 276 276 274 273 273 273 273 273 274 274 274 273 274 274 275 275 274 274 274 274 274 273 273 272 272 271 270 269 269 269 270 272 272 272 272 273 274 275 275 276 277 278 278 278 279 279 280 280 281 281 282 283 283 284 284 285 285 286 286 286 286 287 287 288 288 288 289 289 289 290
272 273 274 275 277 279 279 279 279 278 277 277 276 275 274 274 274 274 274 274 274 274 274 274 275 275 275 275 275 275 275 275 275 276 276 276 276 276 275 274 273 273 273 273 274 275 275 275 274 273 273 274 274 274 275 275 276 277 278 278 279 279 280 280 280 280 281 281 281 282 283 284 285 286 286 286 286 286 286 286 287 287 287 288 288
269 271 272 274 276 277 278 279 279 279 280 280 279 277 275 273 272 272 273 273 274 274 274 274 274 275 275 276 276 275 275 275 275 276 276 277 277 277 276 275 275 276 276 276 277 277 278 278 278 277 276 276 276 276 276 275 275 276 276 277 278 278 278 279 279 279 280 280 281 282 283 283 284 285 285 285 284 284 285 285 286 286 286 286 286
265 267 269 272 273 274 274 275 275 277 279 280 280 279 278 276 274 272 272 271 272 272 273 273 273 274 275 276 276 276 276 276 276 276 277 277 277 276 276 276 276 276 277 277 278 279 279 279 279 278 277 277 277 278 278 278 278 277 277 277 278 278 279 279 279 280 280 281 282 283 283 283 283 283 283 283 284 285 285 286 287 287 287 287 286
262 264 266 268 269 269 271 272 273 274 277 279 279 279 278 278 277 275 273 272 271 271 271 272 272 272 272 273 274 274 275 276 276 277 277 278 277 277 276 276 276 276 276 276 277 278 278 278 278 277 276 276 276 277 277 278 278 278 279 279 279 280 281 281 282 282 283 284 284 284 284 284 283 284 284 285 286 286 287 287 287 287 286 286 286
259 260 261 263 265 267 269 271 272 274 276 277 277 278 278 277 276 275 274 273 272 271 271 271 271 271 271 271 272 273 273 274 275 276 276 277 277 277 276 276 276 276 276 276 276 276 276 276 276 276 276 276 276 276 276 276 277 278 278 278 278 279 280 281 282 283 284 284 284 284 284 285 285 286 287 287 287 288 288 288 287 286 286 286 286
257 257 258 260 263 266 268 270 272 274 274 275 275 277 277 276 276 276 276 276 275 274 273 272 271 271 271 271 271 271 272 272 272 273 274 274 275 275 275 275 275 275 275 276 276 275 275 275 276 276 277 277 277 277 277 278 278 278 278 278 279 280 281 282 283 283 283 283 283 283 284 286 286 287 288 289 289 289 289 289 288 288 288 288 288
258 258 259 261 262 264 267 269 270 272 272 273 274 274 274 274 276 277 277 277 277 276 275 273 271 270 270 269 269 269 269 270 270 271 271 272 272 272 273 273 274 274 275 275 274 274 275 275 276 277 277 277 277 277 278 278 278 278 279 280 281 282 283 283 284 284 284 285 286 286 287 288 288 289 290 290 290 290 290 290 290 290 290 289 289
259 259 260 262 263 264 266 268 269 270 271 271 272 272 272 273 274 275 275 276 276 277 276 275 273 272 270 269 268 268 268 268 269 269 270 270 270 270 271 272 272 273 273 273 274 274 275 275 275 276 276 276 277 277 277 277 278 278 279 281 282 283 283 284 285 287 288 289 289 290 291 291 291 292 291 291 291 291 291 291 291 291 290 290 290
258 258 260 262 263 265 266 267 268 269 269 269 269 270 271 272 272 272 273 273 273 274 274 274 274 273 271 270 269 268 268 268 268 269 269 269 269 269 270 270 271 272 273 273 273 274 274 275 275 275 275 276 276 276 277 277 278 279 280 282 283 284 285 286 287 288 289 290 290 291 291 292 292 292 292 292 292 292 291 291 291 291 291 291 291
Height
3228 3229 3230 3231 3232 3234 3235 3236 3237 3239 3240 3241 3242 3243 3244 3245 3246 3246 3247 3248 3249 3250 3250 3251 3252 3252 3253 3253 3254 3254 3255 3255 3256 3256 3257 3257 3258 3258 3258 3258 3258 3259 3259 3259 3259 3259 3260 3260 3260 3260 3260 3260 3261 3261 3261 3260 3260 3260 3260 3260 3260 3260 3259 3259 3259 3259 3258 3258 3257 3257 3257 3256 3255 3255 3254 3253 3252 3251 3250 3250 3249 3248 3247 3245 3244
3227 3228 3229 3230 3231 3233 3234 3235 3236 3238 3239 3240 3241 3242 3243 3244 3244 3245 3246 3247 3248 3249 3249 3250 3251 3251 3252 3252 3253 3253 3254 3255 3255 3256 3256 3257 3257 3257 3258 3258 3258 3258 3259 3259 3259 3259 3260 3260 3260 3260 3260 3260 3260 3260 3261 3260 3260 3260 3260 3259 3259 3259 3259 3258 3258 3258 3257 3257 3257 3256 3255 3255 3254 3253 3252 3252 3251 3250 3249 3248 3247 3246 3244 3243 3242
3226 3227 3228 3229 3230 3231 3232 3233 3235 3236 3237 3239 3240 3241 3241 3242 3243 3244 3245 3246 3247 3248 3248 3249 3249 3250 3251 3251 3252 3252 3253 3254 3254 3255 3255 3256 3257 3257 3257 3258 3258 3258 3258 3258 3259 3259 3259 3259 3260 3260 3260 3260 3260 3260 3260 3260 3260 3260 3260 3259 3259 3259 3258 3258 3257 3256 3256 3256 3256 3255 3254 3253 3252 3251 3251 3250 3249 3248 3247 3246 3245 3244 3242 3241 3240
3224 3225 3226 3228 3229 3230 3231 3232 3233 3234 3236 3237 3238 3239 3240 3241 3242 3243 3244 3245 3245 3246 3247 3247 3248 3249 3249 3250 3251 3251 3252 3253 3253 3254 3255 3255 3256 3256 3256 3257 3257 3257 3258 3258 3258 3259 3259 3259 3259 3259 3259 3259 3260 3260 3260 3260 3260 3260 3259 3259 3259 3258 3258 3257 3256 3255 3255 3255 3254 3254 3253 3252 3251 3250 3249 3248 3247 3246 3245 3244 3243 3242 3241 3240 3239
3222 3224 3225 3226 3227 3228 3229 3230 3232 3233 3234 3235 3236 3237 3238 3239 3239 3240 3242 3243 3244 3244 3245 3246 3247 3247 3248 3249 3249 3250 3251 3252 3252 3253 3254 3254 3255 3255 3256 3256 3256 3257 3257 3257 3258 3258 3258 3258 3259 3259 3259 3259 3259 3259 3259 3259 3259 3259 3259 3258 3258 3257 3257 3256 3255 3254 3254 3253 3253 3252 3251 3251 3250 3249 3248 3247 3246 3245 3244 3242 3241 3240 3239 3238 3237
3221 3222 3223 3224 3225 3227 3228 3229 3230 3231 3232 3233 3234 3235 3236 3237 3238 3238 3239 3241 3242 3243 3243 3244 3245 3246 3247 3248 3248 3249 3250 3250 3251 3252 3253 3253 3253 3254 3254 3255 3255 3256 3256 3256 3257 3257 3258 3258 3258 3258 3258 3258 3258 3258 3258 3258 3258 3258 3258 3257 3257 3256 3255 3255 3254 3253 3252 3252 3251 3250 3250 3249 3248 3247 3246 3245 3244 3243 3242 3241 3240 3239 3238 3236 3235
3218 3220 3221 3222 3223 3225 3226 3227 3228 3229 3230 3231 3232 3233 3234 3235 3236 3237 3238 3239 3240 3241 3242 3243 3244 3245 3246 3246 3247 3248 3248 3249 3250 3251 3251 3252 3252 3253 3253 3254 3254 3254 3255 3255 3256 3256 3256 3257 3257 3257 3257 3257 3257 3257 3257 3257 3257 3257 3256 3256 3255 3255 3254 3254 3253 3252 3251 3250 3249 3249 3248 3247 3246 3245 3245 3244 3242 3242 3240 3239 3238 3238 3236 3235 3234
3215 3217 3218 3220 3221 3222 3224 3224 3226 3227 3228 3229 3230 3231 3232 3233 3234 3235 3236 3237 3238 3239 3240 3241 3242 3243 3244 3245 3245 3246 3247 3248 3249 3249 3250 3250 3250 3251 3252 3252 3253 3253 3253 3254 3254 3255 3255 3255 3256 3256 3255 3256 3256 3256 3256 3256 3255 3255 3255 3254 3254 3253 3253 3252 3252 3251 3250 3249 3248 3247 3247 3246 3245 3244 3244 3243 3241 3240 3239 3238 3236 3236 3235 3233 3232
3213 3214 3215 3216 3218 3219 3220 3221 3222 3223 3225 3226 3227 3229 3230 3231 3232 3233 3234 3235 3235 3237 3238 3239 3240 3241 3242 3243 3244 3245 3245 3246 3247 3247 3248 3248 3249 3249 3250 3250 3251 3251 3252 3252 3253 3253 3254 3254 3254 3254 3254 3254 3254 3254 3254 3254 3254 3254 3253 3253 3252 3252 3251 3251 3250 3249 3248 3247 3247 3246 3245 3244 3244 3243 3242 3241 3240 3239 3237 3236 3235 3233 3232 3231 3231
3210 3211 3212 3213 3215 3216 3217 3217 3218 3219 3221 3222 3224 3226 3227 3229 3230 3231 3232 3232 3233 3234 3236 3237 3238 3239 3240 3241 3243 3243 3244 3244 3244 3245 3246 3246 3247 3247 3248 3248 3249 3249 3250 3251 3251 3252 3252 3252 3252 3252 3252 3252 3252 3252 3252 3252 3252 3252 3252 3251 3251 3250 3249 3249 3248 3247 3246 3246 3245 3244 3244 3243 3242 3241 3240 3240 3238 3237 3235 3234 3233 3232 3230 3229 3228
3207 3208 3209 3210 3212 3212 3213 3214 3213 3213 3215 3217 3220 3222 3224 3226 3227 3228 3229 3230 3230 3232 3233 3234 3236 3238 3238 3239 3241 3242 3242 3242 3242 3243 3244 3244 3245 3245 3246 3247 3247 3248 3248 3249 3249 3250 3250 3250 3250 3250 3251 3250 3250 3250 3250 3250 3250 3250 3250 3250 3249 3248 3248 3247 3246 3246 3245 3244 3244 3243 3242 3242 3241 3240 3238 3238 3237 3235 3234 3233 3231 3229 3228 3226 3225
3204 3205 3206 3207 3208 3208 3209 3210 3210 3210 3211 3214 3216 3219 3221 3222 3224 3225 3226 3227 3228 3229 3230 3232 3234 3235 3236 3237 3238 3239 3240 3240 3239 3240 3242 3242 3243 3244 3245 3245 3246 3246 3247 3247 3247 3248 3248 3248 3248 3249 3249 3248 3247 3247 3248 3248 3248 3248 3247 3247 3247 3246 3246 3245 3244 3244 3243 3242 3242 3242 3241 3240 3239 3238 3237 3236 3234 3233 3232 3231 3229 3227 3225 3224 3222
3200 3201 3201 3202 3203 3204 3205 3207 3207 3208 3210 3211 3213 3216 3217 3219 3221 3222 3224 3224 3225 3226 3228 3229 3231 3232 3234 3235 3236 3237 3237 3236 3236 3237 3239 3240 3241 3242 3242 3243 3244 3244 3244 3245 3245 3245 3245 3246 3246 3246 3247 3246 3245 3245 3245 3245 3246 3245 3245 3245 3244 3244 3243 3242 3242 3241 3241 3240 3239 3239 3239 3237 3237 3236 3235 3233 3232 3230 3229 3228 3226 3224 3223 3221 3220
3196 3197 3197 3198 3199 3201 3203 3204 3205 3206 3207 3209 3211 3213 3214 3216 3218 3219 3220 3221 3222 3223 3225 3226 3227 3229 3231 3232 3234 3234 3233 3232 3233 3234 3236 3238 3239 3239 3240 3241 3241 3242 3242 3242 3243 3243 3243 3243 3243 3244 3244 3243 3242 3242 3243 3243 3243 3242 3241 3241 3242 3241 3241 3240 3240 3239 3238 3238 3237 3237 3236 3235 3234 3233 3232 3231 3229 3228 3226 3224 3223 3222 3220 3219 3218
3193 3194 3194 3195 3198 3200 3201 3202 3203 3204 3205 3206 3207 3209 3211 3212 3214 3215 3217 3217 3218 3220 3221 3223 3224 3225 3227 3228 3229 3228 3227 3228 3230 3231 3232 3235 3236 3237 3237 3238 3239 3239 3239 3240 3240 3240 3240 3239 3240 3240 3239 3239 3239 3240 3241 3240 3240 3240 3239 3238 3239 3239 3239 3239 3238 3237 3237 3236 3235 3235 3234 3233 3232 3230 3230 3228 3227 3225 3223 3222 3221 3219 3218 3216 3215
3191 3191 3192 3194 3196 3197 3198 3199 3200 3200 3201 3202 3203 3205 3207 3209 3210 3212 3213 3214 3215 3216 3216 3218 3219 3220 3222 3223 3224 3223 3224 3226 3227 3228 3229 3231 3233 3233 3234 3235 3236 3237 3237 3238 3237 3236 3235 3235 3236 3236 3237 3237 3237 3237 3238 3238 3238 3237 3237 3237 3236 3236 3236 3236 3236 3235 3234 3234 3233 3233 3232 3231 3230 3228 3227 3226 3224 3223 3221 3220 3219 3217 3215 3214 3213
3188 3189 3190 3192 3193 3193 3194 3195 3196 3196 3197 3198 3200 3202 3203 3205 3206 3207 3208 3209 3210 3210 3211 3213 3215 3217 3219 3221 3221 3222 3223 3224 3225 3226 3228 3229 3230 3231 3231 3232 3232 3233 3233 3233 3232 3231 3232 3233 3234 3234 3234 3235 3235 3234 3235 3235 3234 3234 3234 3234 3234 3234 3234 3234 3233 3233 3232 3231 3231 3230 3229 3228 3227 3227 3225 3224 3222 3220 3218 3218 3218 3216 3213 3211 3210
3186 3187 3188 3189 3190 3190 3191 3192 3193 3194 3195 3197 3198 3198 3199 3200 3202 3203 3204 3204 3205 3207 3210 3213 3214 3216 3217 3218 3219 3220 3221 3222 3223 3224 3225 3226 3227 3228 3228 3227 3228 3228 3229 3228 3228 3229 3230 3231 3231 3231 3231 3232 3232 3232 3232 3232 3231 3231 3230 3230 3231 3231 3231 3231 3231 3230 3229 3229 3228 3227 3226 3225 3225 3224 3223 3222 3221 3219 3216 3215 3215 3214 3212 3210 3208
3183 3185 3186 3187 3187 3187 3188 3190 3190 3191 3193 3195 3195 3196 3196 3197 3198 3200 3201 3201 3202 3205 3208 3211 3212 3212 3213 3214 3215 3216 3219 3220 3220 3221 3222 3222 3223 3224 3223 3224 3225 3226 3226 3226 3227 3228 3228 3228 3228 3228 3228 3229 3229 3228 3229 3229 3228 3228 3227 3227 3228 3227 3227 3228 3228 3227 3226 3226 3225 3224 3224 3223 3222 3221 3220 3219 3219 3217 3215 3213 3213 3211 3210 3208 3207
3181 3182 3183 3184 3185 3185 3186 3187 3188 3189 3191 3192 3193 3194 3194 3195 3196 3197 3199 3200 3201 3203 3205 3206 3207 3207 3208 3209 3210 3211 3214 3216 3217 3217 3218 3219 3219 3220 3220 3221 3222 3222 3223 3223 3224 3224 3223 3223 3225 3225 3225 3225 3225 3225 3225 3225 3225 3224 3224 3224 3224 3224 3224 3224 3224 3224 3223 3222 3221 3220 3220 3220 3219 3218 3217 3216 3215 3214 3213 3211 3210 3209 3207 3205 3205
3179 3180 3181 3182 3183 3183 3184 3186 3186 3187 3188 3190 3191 3192 3193 3193 3194 3195 3197 3198 3199 3200 3200 3200 3201 3202 3204 3206 3206 3207 3209 3211 3212 3213 3214 3214 3216 3216 3217 3218 3218 3218 3218 3219 3220 3221 3220 3219 3220 3221 3221 3221 3221 3222 3222 3221 3221 3221 3221 3221 3221 3221 3221 3220 3220 3220 3219 3219 3218 3217 3217 3216 3216 3215 3214 3213 3212 3211 3210 3208 3207 3206 3204 3202 3201
3178 3179 3179 3180 3181 3182 3183 3184 3185 3185 3186 3188 3189 3190 3191 3192 3192 3193 3194 3195 3196 3196 3196 3197 3198 3199 3200 3201 3202 3202 3204 3205 3207 3208 3210 3210 3211 3213 3213 3214 3214 3214 3214 3215 3217 3218 3217 3216 3216 3216 3217 3217 3218 3218 3218 3218 3218 3218 3217 3217 3217 3217 3217 3216 3216 3216 3216 3215 3215 3214 3214 3213 3213 3212 3211 3210 3209 3208 3207 3205 3204 3203 3201 3200 3198
3176 3177 3177 3178 3179 3180 3181 3182 3182 3183 3185 3186 3187 3188 3190 3190 3191 3191 3192 3192 3193 3194 3194 3195 3196 3196 3196 3197 3198 3199 3199 3199 3200 3202 3204 3206 3207 3209 3210 3210 3210 3210 3210 3212 3214 3215 3213 3212 3212 3212 3213 3214 3214 3214 3215 3215 3214 3214 3214 3214 3214 3213 3213 3213 3213 3213 3213 3212 3212 3212 3211 3210 3210 3209 3208 3207 3206 3205 3204 3203 3202 3201 3199 3198 3197
3175 3176 3176 3177 3178 3179 3179 3180 3181 3182 3183 3184 3185 3186 3187 3188 3189 3189 3190 3190 3191 3191 3192 3193 3193 3193 3194 3195 3196 3196 3196 3195 3195 3196 3199 3202 3204 3206 3206 3207 3206 3206 3206 3208 3210 3210 3209 3208 3208 3208 3209 3210 3210 3211 3211 3211 3211 3211 3211 3210 3210 3210 3209 3209 3209 3210 3209 3209 3209 3209 3208 3207 3207 3206 3205 3204 3203 3202 3201 3200 3199 3198 3197 3196 3195
3174 3175 3176 3177 3178 3178 3178 3178 3179 3180 3181 3182 3183 3184 3185 3186 3186 3187 3187 3188 3189 3189 3190 3190 3191 3192 3192 3193 3193 3194 3194 3194 3194 3195 3196 3199 3201 3202 3203 3202 3202 3202 3203 3204 3205 3205 3205 3204 3204 3205 3206 3207 3207 3208 3208 3208 3208 3208 3208 3207 3207 3207 3206 3206 3207 3207 3206 3206 3206 3205 3205 3204 3204 3203 3202 3201 3200 3199 3198 3197 3196 3195 3194 3193 3192
3174 3175 3175 3176 3177 3178 3178 3178 3179 3181 3181 3182 3183 3183 3183 3184 3185 3185 3186 3186 3187 3187 3188 3188 3189 3190 3190 3191 3191 3192 3192 3193 3194 3194 3195 3196 3198 3199 3200 3199 3198 3200 3201 3201 3202 3203 3203 3202 3202 3203 3204 3205 3205 3205 3205 3205 3205 3205 3205 3205 3205 3204 3204 3204 3204 3204 3203 3203 3203 3202 3202 3201 3201 3200 3199 3198 3198 3196 3195 3194 3193 3192 3191 3190 3189
3173 3174 3174 3175 3176 3177 3178 3178 3179 3181 3181 3182 3182 3183 3183 3183 3184 3184 3184 3185 3185 3186 3186 3187 3187 3188 3189 3189 3190 3190 3190 3191 3193 3193 3193 3194 3195 3196 3197 3196 3196 3197 3198 3198 3199 3200 3201 3201 3201 3201 3202 3203 3203 3203 3203 3202 3202 3203 3203 3203 3203 3202 3202 3202 3202 3201 3201 3201 3200 3199 3199 3198 3198 3197 3196 3195 3194 3193 3192 3191 3190 3189 3188 3186 3186
3172 3173 3173 3174 3175 3176 3176 3177 3178 3179 3180 3180 3181 3181 3182 3182 3183 3183 3184 3184 3185 3185 3185 3186 3186 3187 3187 3188 3189 3189 3188 3190 3191 3191 3191 3192 3192 3193 3193 3194 3194 3194 3195 3195 3196 3197 3198 3199 3199 3200 3201 3201 3201 3201 3201 3200 3200 3200 3200 3200 3200 3200 3199 3199 3199 3198 3198 3198 3197 3196 3195 3194 3194 3193 3192 3191 3190 3189 3188 3187 3186 3185 3184 3182 3181
3171 3171 3172 3173 3174 3174 3175 3176 3176 3177 3178 3178 3179 3179 3180 3181 3181 3182 3182 3183 3183 3184 3184 3185 3185 3186 3186 3187 3188 3187 3187 3188 3189 3188 3188 3189 3190 3191 3191 3192 3192 3193 3193 3194 3195 3195 3196 3197 3197 3198 3198 3199 3198 3198 3198 3197 3197 3197 3197 3197 3197 3196 3195 3195 3195 3195 3194 3194 3193 3191 3191 3190 3189 3188 3187 3186 3185 3184 3183 3182 3181 3180 3179 3178 3177
3170 3170 3171 3171 3172 3173 3173 3174 3175 3175 3175 3176 3177 3177 3177 3178 3179 3179 3180 3180 3181 3182 3182 3183 3184 3184 3184 3185 3186 3186 3186 3187 3187 3187 3187 3188 3188 3189 3189 3190 3191 3191 3192 3193 3193 3194 3194 3194 3195 3195 3195 3195 3195 3195 3194 3194 3193 3193 3193 3193 3193 3192 3191 3190 3190 3190 3190 3189 3188 3187 3186 3185 3184 3183 3182 3181 3181 3180 3178 3177 3176 3175 3174 3173 3172
3168 3169 3170 3170 3171 3171 3172 3172 3173 3173 3173 3174 3174 3175 3175 3175 3176 3176 3177 3177 3178 3179 3179 3180 3181 3181 3182 3183 3184 3184 3184 3184 3185 3185 3186 3186 3186 3187 3187 3188 3188 3189 3190 3190 3191 3191 3191 3191 3191 3191 3191 3191 3191 3190 3190 3190 3189 3189 3188 3188 3187 3187 3186 3185 3185 3186 3185 3184 3182 3182 3181 3180 3179 3178 3177 3177 3176 3175 3174 3172 3171 3170 3169 3168 3167
3167 3168 3168 3169 3169 3169 3170 3170 3170 3171 3171 3171 3172 3172 3173 3173 3173 3174 3174 3174 3175 3175 3176 3177 3177 3178 3179 3180 3181 3181 3181 3181 3182 3182 3183 3183 3184 3184 3184 3185 3185 3186 3186 3187 3187 3187 3187 3187 3187 3186 3186 3186 3186 3185 3185 3185 3184 3184 3183 3183 3182 3181 3180 3179 3180 3180 3179 3178 3177 3177 3176 3175 3174 3173 3173 3172 3171 3170 3169 3168 3167 3165 3164 3163 3162
3166 3166 3167 3167 3167 3168 3168 3168 3168 3168 3169 3169 3169 3170 3170 3170 3171 3172 3172 3172 3172 3173 3173 3173 3174 3174 3175 3176 3176 3177 3178 3178 3178 3179 3179 3180 3180 3180 3180 3181 3181 3182 3182 3182 3182 3182 3182 3182 3182 3182 3181 3181 3181 3180 3180 3180 3179 3179 3178 3178 3177 3176 3175 3175 3175 3175 3174 3173 3172 3172 3171 3170 3169 3169 3168 3167 3166 3165 3165 3163 3162 3161 3160 3159 3158
3164 3164 3165 3165 3165 3165 3166 3166 3166 3166 3166 3167 3167 3167 3167 3168 3168 3168 3169 3169 3170 3170 3170 3170 3170 3171 3171 3171 3172 3173 3173 3174 3174 3175 3175 3175 3176 3176 3176 3177 3177 3177 3177 3177 3177 3177 3177 3177 3177 3177 3176 3176 3176 3175 3175 3175 3174 3174 3174 3173 3172 3171 3171 3171 3171 3170 3169 3169 3169 3167 3167 3166 3165 3164 3164 3163 3162 3161 3160 3159 3158 3157 3156 3155 3154
3161 3162 3162 3162 3163 3163 3163 3163 3164 3164 3164 3164 3164 3165 3165 3165 3165 3165 3165 3166 3166 3167 3167 3167 3167 3167 3167 3168 3168 3169 3169 3169 3170 3170 3171 3171 3171 3172 3172 3172 3172 3173 3173 3173 3173 3173 3173 3173 3172 3172 3172 3172 3171 3171 3170 3170 3170 3169 3169 3168 3168 3167 3167 3167 3166 3166 3166 3166 3165 3164 3163 3162 3161 3160 3160 3159 3158 3157 3156 3155 3153 3152 3151 3150 3149
3158 3159 3159 3160 3160 3160 3161 3161 3161 3161 3161 3162 3162 3162 3162 3162 3162 3162 3162 3162 3162 3163 3163 3163 3164 3164 3165 3165 3165 3165 3166 3166 3166 3166 3166 3167 3167 3167 3168 3168 3168 3168 3168 3168 3169 3169 3169 3168 3168 3168 3168 3167 3167 3166 3166 3166 3165 3165 3165 3164 3164 3163 3163 3163 3162 3162 3162 3161 3160 3160 3159 3158 3157 3156 3155 3154 3154 3153 3151 3150 3149 3148 3147 3145 3144
3155 3156 3156 3156 3157 3157 3157 3158 3158 3158 3159 3159 3159 3159 3159 3159 3159 3159 3159 3159 3159 3159 3159 3159 3160 3160 3161 3161 3162 3163 3163 3163 3162 3162 3163 3163 3163 3164 3164 3163 3163 3163 3164 3164 3164 3164 3164 3164 3164 3163 3163 3163 3163 3163 3162 3162 3161 3161 3160 3160 3159 3159 3158 3158 3158 3157 3157 3157 3156 3155 3155 3154 3153 3152 3151 3150 3149 3148 3147 3146 3145 3144 3142 3141 3140
3152 3152 3153 3153 3153 3154 3154 3154 3154 3155 3155 3155 3155 3156 3156 3156 3156 3156 3156 3156 3156 3156 3156 3156 3156 3156 3156 3156 3158 3160 3160 3159 3159 3159 3159 3159 3160 3160 3160 3160 3159 3159 3159 3159 3159 3159 3159 3159 3158 3158 3158 3158 3158 3158 3158 3157 3157 3157 3156 3155 3155 3154 3154 3153 3153 3152 3152 3151 3151 3150 3149 3148 3148 3147 3146 3145 3144 3143 3142 3141 3140 3139 3138 3136 3135
3148 3148 3149 3149 3149 3150 3150 3150 3151 3151 3151 3151 3152 3152 3152 3152 3152 3152 3152 3152 3152 3152 3152 3152 3152 3152 3152 3152 3154 3156 3156 3155 3155 3155 3155 3155 3156 3156 3156 3156 3156 3156 3155 3155 3155 3154 3154 3154 3154 3154 3154 3154 3154 3153 3153 3152 3152 3152 3152 3151 3150 3150 3149 3148 3147 3146 3146 3145 3145 3144 3143 3142 3142 3141 3140 3139 3138 3137 3136 3135 3134 3133 3132 3131 3130
3144 3144 3145 3145 3146 3146 3146 3146 3147 3147 3147 3147 3147 3148 3148 3148 3148 3148 3148 3148 3148 3148 3149 3149 3148 3147 3148 3149 3151 3151 3151 3150 3150 3151 3151 3151 3151 3151 3152 3152 3152 3151 3151 3151 3150 3150 3149 3150 3150 3150 3150 3149 3149 3148 3148 3148 3147 3147 3146 3146 3145 3144 3144 3143 3142 3141 3140 3139 3139 3138 3137 3136 3135 3135 3134 3133 3132 3131 3130 3129 3128 3127 3126 3124 3123
3140 3140 3141 3141 3141 3142 3143 3143 3143 3143 3143 3143 3143 3143 3143 3144 3144 3144 3144 3144 3144 3144 3144 3144 3143 3143 3144 3145 3146 3147 3147 3146 3146 3146 3146 3146 3146 3147 3147 3147 3147 3147 3146 3146 3145 3145 3145 3146 3147 3146 3145 3144 3144 3144 3143 3143 3142 3142 3141 3140 3139 3139 3138 3137 3136 3135 3134 3133 3132 3131 3131 3130 3129 3128 3128 3127 3126 3125 3124 3122 3121 3121 3119 3118 3117
3136 3136 3137 3137 3137 3138 3138 3139 3139 3140 3140 3140 3140 3139 3139 3139 3139 3139 3139 3139 3139 3140 3140 3139 3138 3138 3139 3140 3141 3142 3142 3141 3141 3141 3141 3141 3141 3141 3141 3141 3141 3141 3140 3140 3139 3139 3140 3141 3141 3141 3140 3139 3139 3138 3138 3138 3137 3136 3135 3135 3134 3133 3132 3132 3131 3130 3129 3128 3126 3125 3124 3123 3123 3122 3121 3120 3119 3118 3117 3116 3114 3113 3112 3111 3110
3132 3132 3132 3133 3133 3133 3134 3134 3134 3135 3135 3136 3136 3136 3136 3136 3135 3135 3135 3135 3135 3135 3135 3135 3134 3133 3133 3134 3136 3137 3137 3136 3136 3135 3135 3135 3135 3136 3136 3135 3135 3135 3134 3134 3134 3134 3134 3135 3135 3135 3135 3134 3133 3133 3132 3132 3131 3130 3129 3129 3128 3127 3126 3126 3125 3124 3123 3122 3121 3120 3119 3118 3117 3116 3115 3113 3112 3111 3110 3109 3108 3107 3106 3104 3103
3128 3128 3128 3128 3128 3128 3129 3129 3129 3129 3130 3131 3131 3131 3131 3131 3131 3131 3130 3130 3130 3130 3130 3130 3130 3129 3129 3129 3130 3131 3132 3132 3131 3130 3130 3130 3130 3130 3130 3129 3129 3129 3128 3128 3127 3127 3128 3128 3128 3128 3128 3127 3126 3126 3126 3125 3125 3124 3123 3122 3121 3121 3120 3119 3118 3117 3116 3115 3115 3114 3114 3112 3111 3110 3108 3107 3106 3104 3104 3103 3101 3100 3099 3098 3097
3123 3123 3123 3123 3123 3123 3124 3124 3124 3125 3125 3125 3126 3126 3126 3126 3126 3126 3126 3126 3126 3126 3125 3125 3125 3125 3124 3124 3124 3125 3126 3126 3126 3125 3125 3125 3125 3125 3124 3124 3123 3123 3122 3122 3122 3122 3122 3122 3122 3121 3121 3120 3120 3119 3118 3118 3118 3117 3116 3115 3114 3114 3113 3112 3111 3110 3110 3109 3108 3108 3106 3105 3104 3103 3101 3100 3098 3098 3097 3096 3095 3093 3092 3091 3090
3118 3118 3118 3118 3118 3118 3119 3119 3119 3120 3121 3121 3121 3121 3121 3120 3120 3121 3121 3121 3121 3121 3121 3120 3120 3120 3120 3119 3119 3119 3120 3120 3120 3120 3119 3119 3119 3119 3119 3118 3118 3118 3117 3117 3117 3116 3116 3116 3115 3115 3114 3114 3113 3113 3112 3111 3111 3110 3109 3108 3107 3106 3105 3105 3104 3104 3103 3102 3102 3100 3099 3098 3097 3095 3094 3093 3092 3091 3090 3089 3088 3086 3085 3083 3082
3113 3113 3113 3113 3113 3113 3113 3114 3114 3115 3116 3116 3116 3116 3115 3115 3115 3115 3115 3115 3115 3116 3115 3115 3115 3115 3114 3114 3114 3114 3114 3115 3115 3115 3114 3113 3113 3113 3113 3113 3113 3112 3112 3112 3111 3111 3110 3110 3109 3108 3108 3108 3107 3107 3106 3105 3104 3104 3102 3101 3100 3100 3099 3098 3098 3097 3097 3096 3095 3093 3092 3091 3089 3088 3087 3086 3085 3084 3083 3082 3080 3079 3077 3076 3074
3108 3108 3108 3109 3109 3109 3109 3109 3110 3111 3111 3111 3111 3111 3110 3110 3110 3110 3110 3110 3110 3110 3110 3110 3110 3109 3109 3109 3109 3109 3109 3109 3109 3109 3109 3108 3108 3108 3107 3107 3107 3107 3106 3106 3106 3105 3104 3104 3103 3103 3102 3102 3101 3100 3100 3099 3098 3097 3095 3094 3094 3094 3093 3092 3091 3091 3090 3089 3088 3087 3085 3084 3083 3081 3080 3079 3077 3076 3075 3074 3072 3071 3069 3068 3067
3103 3103 3103 3104 3104 3104 3104 3104 3105 3106 3106 3106 3106 3106 3106 3105 3105 3105 3105 3104 3104 3104 3104 3104 3104 3104 3104 3104 3104 3103 3103 3104 3104 3104 3104 3103 3103 3103 3102 3102 3101 3101 3101 3101 3100 3099 3099 3098 3098 3097 3096 3096 3095 3094 3093 3093 3092 3090 3089 3088 3088 3088 3086 3085 3084 3083 3082 3081 3080 3079 3078 3077 3076 3074 3073 3071 3069 3068 3067 3065 3063 3062 3061 3059 3058
3098 3098 3098 3099 3099 3099 3099 3100 3100 3100 3101 3101 3101 3101 3101 3101 3101 3100 3100 3099 3099 3099 3099 3098 3098 3098 3098 3098 3098 3098 3098 3098 3098 3098 3098 3098 3097 3097 3097 3096 3096 3096 3095 3095 3094 3094 3093 3093 3092 3091 3091 3090 3089 3088 3088 3087 3085 3084 3083 3082 3082 3081 3080 3078 3077 3076 3074 3073 3072 3071 3070 3069 3067 3066 3065 3063 3061 3059 3058 3057 3055 3054 3052 3051 3050
3092 3093 3094 3094 3094 3094 3095 3095 3095 3095 3096 3096 3096 3096 3096 3096 3096 3095 3095 3095 3094 3094 3093 3093 3093 3093 3092 3092 3092 3092 3092 3092 3092 3092 3092 3092 3092 3091 3091 3091 3090 3090 3090 3089 3089 3088 3087 3087 3086 3086 3085 3084 3083 3082 3081 3080 3079 3078 3077 3077 3076 3075 3073 3072 3071 3069 3068 3066 3065 3064 3062 3060 3059 3057 3056 3054 3053 3051 3050 3048 3047 3045 3044 3043 3041